STARLINK-37207, 100184

Orbit data source: Space-Track

STARLINK-37207, 100184 is a payload satellite owned by SpaceX/Seattle (US) in SSO that was launched on Sat, 01 Aug 2026 UTC launched from the Air Force Western Test Range (AFWTR). Payload-class satellites include a variety of spacecraft equipped with specific instruments for various scientific and technological missions. These include communications satellites like Starlink; space stations such as the ISS; scientific satellites like the Hubble; Earth observation satellites from companies like Planet Labs, Umbra, and HawkEye 360; GPS; miniature CubeSats for education and research; and military/defense satellites.

Not visible in the next 10 days
Identifier
100184, 2026-175F
Orbit
SSO
Country
Flag of USUS
Related business
Manufacturer
SpaceX/Seattle
Mission
Operational spacecraft
Bus & Motor
STARLINK V2MO, Unknown motor
Mass
575 kg wet, ~530 kg dry
Launch date (UTC)
2026-08-01 (2 months ago)
Launch vehicle
Unknown
Launch site
Air Force Western Test Range (AFWTR)
Object type
Payload
Rocket body
Debris
Shape & HBR
BOX + PAN, 17.7 m
Radar Cross Section
Large (>1 m²)

Expand to show TLE details & history
Last TLE update: 9 hours ago

TLE from 9 hours ago
0 STARLINK-37207
1 A0184U 26175F   26263.84314662  .00121725  00000-0  81445-3 0  9990
2 A0184  97.2863 106.3487 0004609   5.4643 354.6671 15.74919652  9235
Epoch: 2026-09-20T20:14Z
TLE epoch observation values (Epoch: 2026-09-20T20:14:07.867Z)
Latitude
-0.00011°
Longitude
163.08442°
Altitude
344.942 km
Speed
7.704 km/s
True Right ascension
07h 05m 23s
True Declination
0° 00' 00"
Sunlit
Object was in daylight at epoch
Visualization orbit readout
Latitude
Unknown
Longitude
Unknown
Altitude
Unknown
Speed
Unknown
Apparent Right ascension
Unknown
Apparent Declination
Unknown
Sunlit
N/A
Visualization observer readout
Local Sidereal Time
22:07:33
Azimuth
Unknown
Elevation
Unknown
Doppler factor
Unknown
Orbital elements
Apogee altitude
344.845 km
Perigee altitude
338.65 km
Semi-major axis
6,719.885 km
Eccentricity
0.00046
Inclination
97.2863°
RAAN
106.3487°
Arg. of periapsis
5.4643°
True anomaly
354.66219°
Mean anomaly
354.6671°
Eccentric anomaly
354.66464°
Mean motion
3.94004 °/min
Orbital period
91.37 mins
BSTAR
0.00081445
Loading maneuver chart data...
Computing Atmospheric mass density...
Loading historical data...
Loading historical data...
Loading historical data...
Loading historical data...
Loading historical data...
Loading historical data...
Loading historical data...

Documentation

Showing up to 5 results
|